Back to catalog

COSMOS 2251 DEB

AliveLEO
NORAD 34615·DEBRIS·🇷🇺 Russia

Launched Jun 16, 1993 from Plesetsk Cosmodrome

Loading…

Next Passes (next 24 hours)

TLE

FreshSource: Space-Track

Epoch: Sep 14, 2026, 20:23 UTC

1 34615U 93036WL  26257.84965108  .00000866  00000-0  81428-3 0  9999
2 34615  74.0055 211.2398 0396553  61.2691 329.4647 13.52509867865486

Track COSMOS 2251 DEB in real time with AllMySat

Download on the App Store